Time,TemperatureF,DewpointF,PressureIn,WindDirection,WindDirectionDegrees,WindSpeedMPH,WindSpeedGustMPH,Humidity,HourlyPrecipIn,Conditions,Clouds,dailyrainin,SolarRadiationWatts/m^2,SoftwareType,DateUTC
2013-08-23 00:13:00,62.3,56.0,30.16,NE,38,0.0,-999.0,79,-99.99,,,0.00,0,weatherlink.com 1.10,2013-08-23 05:13:00,
2013-08-23 00:28:00,61.4,56.0,30.16,NE,38,0.0,-999.0,82,-99.99,,,0.00,0,weatherlink.com 1.10,2013-08-23 05:28:00,
2013-08-23 00:43:00,61.1,56.0,30.16,NE,38,0.0,-999.0,83,-99.99,,,0.00,0,weatherlink.com 1.10,2013-08-23 05:43:00,
2013-08-23 00:58:00,61.1,56.0,30.17,NE,38,0.0,-999.0,83,-99.99,,,0.00,0,weatherlink.com 1.10,2013-08-23 05:58:00,
2013-08-23 01:13:00,61.6,56.0,30.16,NE,38,0.0,-999.0,83,-99.99,,,0.00,0,weatherlink.com 1.10,2013-08-23 06:13:00,
2013-08-23 01:28:00,61.2,55.0,30.16,NE,38,0.0,-999.0,81,-99.99,,,0.00,0,weatherlink.com 1.10,2013-08-23 06:28:00,
2013-08-23 01:43:00,61.1,55.0,30.16,NE,38,0.0,-999.0,80,-99.99,,,0.00,0,weatherlink.com 1.10,2013-08-23 06:43:00,
2013-08-23 01:58:00,61.1,56.0,30.16,NE,38,0.0,-999.0,82,-99.99,,,0.00,0,weatherlink.com 1.10,2013-08-23 06:58:00,
2013-08-23 02:13:00,60.5,55.0,30.16,NE,38,0.0,-999.0,82,-99.99,,,0.00,0,weatherlink.com 1.10,2013-08-23 07:13:00,
2013-08-23 02:28:00,60.2,55.0,30.16,NE,38,0.0,-999.0,83,-99.99,,,0.00,0,weatherlink.com 1.10,2013-08-23 07:28:00,
2013-08-23 02:43:00,60.2,55.0,30.16,NE,38,0.0,-999.0,84,-99.99,,,0.00,0,weatherlink.com 1.10,2013-08-23 07:43:00,
2013-08-23 02:58:00,59.9,55.0,30.16,NE,38,0.0,-999.0,84,-99.99,,,0.00,0,weatherlink.com 1.10,2013-08-23 07:58:00,
2013-08-23 03:13:00,59.5,55.0,30.16,NE,38,0.0,-999.0,84,-99.99,,,0.00,0,weatherlink.com 1.10,2013-08-23 08:13:00,
2013-08-23 03:28:00,59.4,55.0,30.16,NE,38,0.0,-999.0,84,-99.99,,,0.00,0,weatherlink.com 1.10,2013-08-23 08:28:00,
2013-08-23 03:43:00,58.9,54.0,30.16,NE,38,0.0,-999.0,84,-99.99,,,0.00,0,weatherlink.com 1.10,2013-08-23 08:43:00,
2013-08-23 03:58:00,58.3,54.0,30.16,NE,38,0.0,-999.0,84,-99.99,,,0.00,0,weatherlink.com 1.10,2013-08-23 08:58:00,
2013-08-23 04:13:00,57.8,53.0,30.16,NE,38,0.0,-999.0,85,-99.99,,,0.00,0,weatherlink.com 1.10,2013-08-23 09:13:00,
2013-08-23 04:28:00,57.4,53.0,30.16,NE,38,0.0,-999.0,86,-99.99,,,0.00,0,weatherlink.com 1.10,2013-08-23 09:28:00,
2013-08-23 04:43:00,57.2,53.0,30.15,NE,38,0.0,-999.0,87,-99.99,,,0.00,0,weatherlink.com 1.10,2013-08-23 09:43:00,
2013-08-23 04:58:00,57.2,53.0,30.16,NE,38,0.0,-999.0,86,-99.99,,,0.00,0,weatherlink.com 1.10,2013-08-23 09:58:00,
2013-08-23 05:13:00,56.8,53.0,30.16,NE,38,0.0,-999.0,87,-99.99,,,0.00,0,weatherlink.com 1.10,2013-08-23 10:13:00,
2013-08-23 05:28:00,56.6,53.0,30.16,NE,38,0.0,-999.0,87,-99.99,,,0.00,0,weatherlink.com 1.10,2013-08-23 10:28:00,
2013-08-23 05:43:00,56.3,53.0,30.17,NE,38,0.0,-999.0,87,-99.99,,,0.00,0,weatherlink.com 1.10,2013-08-23 10:43:00,
2013-08-23 05:58:00,56.5,53.0,30.17,NE,38,0.0,-999.0,87,-99.99,,,0.00,0,weatherlink.com 1.10,2013-08-23 10:58:00,
2013-08-23 06:13:00,56.3,53.0,30.17,NE,38,0.0,-999.0,87,-99.99,,,0.00,0,weatherlink.com 1.10,2013-08-23 11:13:00,
2013-08-23 06:28:00,56.0,52.0,30.17,NE,38,0.0,-999.0,87,-99.99,,,0.00,0,weatherlink.com 1.10,2013-08-23 11:28:00,
2013-08-23 06:43:00,56.0,53.0,30.18,NE,38,0.0,-999.0,89,-99.99,,,0.00,9,weatherlink.com 1.10,2013-08-23 11:43:00,
2013-08-23 06:59:00,55.8,53.0,30.18,NE,38,0.0,-999.0,89,-99.99,,,0.00,16,weatherlink.com 1.10,2013-08-23 11:59:00,
2013-08-23 07:14:00,56.0,53.0,30.18,NE,38,0.0,-999.0,90,-99.99,,,0.00,21,weatherlink.com 1.10,2013-08-23 12:14:00,
2013-08-23 07:29:00,56.6,54.0,30.18,NE,38,0.0,-999.0,90,-99.99,,,0.00,25,weatherlink.com 1.10,2013-08-23 12:29:00,
2013-08-23 07:44:00,57.2,54.0,30.18,NE,38,0.0,-999.0,90,-99.99,,,0.00,30,weatherlink.com 1.10,2013-08-23 12:44:00,
2013-08-23 07:59:00,58.2,55.0,30.18,NE,38,0.0,-999.0,89,-99.99,,,0.00,32,weatherlink.com 1.10,2013-08-23 12:59:00,
2013-08-23 08:14:00,59.7,56.0,30.18,NE,38,0.0,-999.0,87,-99.99,,,0.00,37,weatherlink.com 1.10,2013-08-23 13:14:00,
2013-08-23 08:29:00,62.0,56.0,30.18,NE,38,0.0,-999.0,82,-99.99,,,0.00,40,weatherlink.com 1.10,2013-08-23 13:29:00,
2013-08-23 08:44:00,63.8,57.0,30.18,NW,313,0.0,-999.0,79,-99.99,,,0.00,47,weatherlink.com 1.10,2013-08-23 13:44:00,
2013-08-23 08:59:00,65.5,58.0,30.18,WNW,286,0.0,-999.0,77,-99.99,,,0.00,350,weatherlink.com 1.10,2013-08-23 13:59:00,
2013-08-23 09:14:00,68.1,60.0,30.18,WNW,284,2.0,-999.0,74,-99.99,,,0.00,388,weatherlink.com 1.10,2013-08-23 14:14:00,
2013-08-23 09:29:00,69.5,60.0,30.18,SSE,165,0.0,-999.0,72,-99.99,,,0.00,432,weatherlink.com 1.10,2013-08-23 14:29:00,
2013-08-23 09:44:00,70.6,61.0,30.17,ESE,114,1.0,-999.0,71,-99.99,,,0.00,473,weatherlink.com 1.10,2013-08-23 14:44:00,
2013-08-23 09:59:00,72.1,61.0,30.16,SSW,209,0.0,-999.0,69,-99.99,,,0.00,512,weatherlink.com 1.10,2013-08-23 14:59:00,
2013-08-23 10:14:00,73.6,63.0,30.16,SSW,209,0.0,-999.0,69,-99.99,,,0.00,550,weatherlink.com 1.10,2013-08-23 15:14:00,
2013-08-23 10:29:00,74.0,63.0,30.16,WSW,240,3.0,-999.0,68,-99.99,,,0.00,585,weatherlink.com 1.10,2013-08-23 15:29:00,
2013-08-23 10:44:00,75.3,64.0,30.16,NW,315,0.0,-999.0,68,-99.99,,,0.00,615,weatherlink.com 1.10,2013-08-23 15:44:00,
2013-08-23 10:59:00,76.3,65.0,30.16,SW,223,2.0,-999.0,67,-99.99,,,0.00,645,weatherlink.com 1.10,2013-08-23 15:59:00,
2013-08-23 11:14:00,77.3,65.0,30.16,SW,227,2.0,-999.0,66,-99.99,,,0.00,670,weatherlink.com 1.10,2013-08-23 16:14:00,
2013-08-23 11:29:00,78.1,67.0,30.15,SE,129,0.0,-999.0,68,-99.99,,,0.00,694,weatherlink.com 1.10,2013-08-23 16:29:00,
2013-08-23 11:45:00,78.7,65.0,30.15,SW,225,3.0,-999.0,64,-99.99,,,0.00,717,weatherlink.com 1.10,2013-08-23 16:45:00,
2013-08-23 12:00:00,79.7,67.0,30.14,SW,222,4.0,-999.0,65,-99.99,,,0.00,737,weatherlink.com 1.10,2013-08-23 17:00:00,
2013-08-23 12:15:00,80.5,65.0,30.14,SE,137,2.0,-999.0,60,-99.99,,,0.00,747,weatherlink.com 1.10,2013-08-23 17:15:00,
2013-08-23 12:30:00,80.0,65.0,30.14,SSW,205,2.0,-999.0,61,-99.99,,,0.00,759,weatherlink.com 1.10,2013-08-23 17:30:00,
2013-08-23 13:00:00,81.2,67.0,30.13,WSW,237,1.0,-999.0,62,-99.99,,,0.00,768,weatherlink.com 1.10,2013-08-23 18:00:00,
2013-08-23 13:15:00,81.4,68.0,30.13,SSW,211,3.0,-999.0,63,-99.99,,,0.00,777,weatherlink.com 1.10,2013-08-23 18:15:00,
2013-08-23 13:30:00,81.7,68.0,30.12,South,183,3.0,-999.0,64,-99.99,,,0.00,763,weatherlink.com 1.10,2013-08-23 18:30:00,
2013-08-23 13:45:00,81.8,69.0,30.12,SW,221,0.0,-999.0,66,-99.99,,,0.00,795,weatherlink.com 1.10,2013-08-23 18:45:00,
2013-08-23 14:00:00,82.6,69.0,30.12,South,189,9.0,-999.0,64,-99.99,,,0.00,773,weatherlink.com 1.10,2013-08-23 19:00:00,
2013-08-23 14:15:00,82.3,68.0,30.11,SE,140,1.0,-999.0,62,-99.99,,,0.00,772,weatherlink.com 1.10,2013-08-23 19:15:00,
2013-08-23 14:30:00,82.7,68.0,30.11,SW,229,4.0,-999.0,61,-99.99,,,0.00,759,weatherlink.com 1.10,2013-08-23 19:30:00,
2013-08-23 14:45:00,82.4,68.0,30.11,South,184,5.0,-999.0,62,-99.99,,,0.00,728,weatherlink.com 1.10,2013-08-23 19:45:00,
2013-08-23 15:00:00,82.8,67.0,30.10,SW,221,3.0,-999.0,60,-99.99,,,0.00,703,weatherlink.com 1.10,2013-08-23 20:00:00,
2013-08-23 15:15:00,82.7,68.0,30.10,SE,144,1.0,-999.0,62,-99.99,,,0.00,671,weatherlink.com 1.10,2013-08-23 20:15:00,
2013-08-23 15:30:00,83.3,68.0,30.09,WSW,252,2.0,-999.0,61,-99.99,,,0.00,649,weatherlink.com 1.10,2013-08-23 20:30:00,
2013-08-23 15:45:00,83.1,70.0,30.08,SW,219,3.0,-999.0,64,-99.99,,,0.00,608,weatherlink.com 1.10,2013-08-23 20:45:00,
2013-08-23 16:00:00,83.5,70.0,30.08,East,91,2.0,-999.0,63,-99.99,,,0.00,527,weatherlink.com 1.10,2013-08-23 21:00:00,
2013-08-23 16:15:00,83.1,69.0,30.08,SSE,164,4.0,-999.0,62,-99.99,,,0.00,550,weatherlink.com 1.10,2013-08-23 21:15:00,
2013-08-23 16:30:00,83.3,69.0,30.08,SW,227,2.0,-999.0,63,-99.99,,,0.00,520,weatherlink.com 1.10,2013-08-23 21:30:00,
2013-08-23 16:45:00,82.7,70.0,30.08,South,175,0.0,-999.0,66,-99.99,,,0.00,506,weatherlink.com 1.10,2013-08-23 21:45:00,
2013-08-23 17:00:00,83.4,70.0,30.08,SW,219,1.0,-999.0,64,-99.99,,,0.00,446,weatherlink.com 1.10,2013-08-23 22:00:00,
2013-08-23 17:15:00,82.1,70.0,30.08,SSE,163,2.0,-999.0,66,-99.99,,,0.00,431,weatherlink.com 1.10,2013-08-23 22:15:00,
2013-08-23 17:30:00,80.8,70.0,30.08,SSE,148,5.0,-999.0,69,-99.99,,,0.00,195,weatherlink.com 1.10,2013-08-23 22:30:00,
2013-08-23 17:45:00,81.1,70.0,30.08,WNW,289,2.0,-999.0,70,-99.99,,,0.00,206,weatherlink.com 1.10,2013-08-23 22:45:00,
2013-08-23 18:00:00,80.7,70.0,30.07,SW,236,2.0,-999.0,70,-99.99,,,0.00,128,weatherlink.com 1.10,2013-08-23 23:00:00,
2013-08-23 18:15:00,80.7,71.0,30.07,SSW,196,3.0,-999.0,71,-99.99,,,0.00,220,weatherlink.com 1.10,2013-08-23 23:15:00,
2013-08-23 18:30:00,80.5,70.0,30.07,SSW,209,3.0,-999.0,70,-99.99,,,0.00,91,weatherlink.com 1.10,2013-08-23 23:30:00,
2013-08-23 18:45:00,79.0,69.0,30.07,SSW,200,3.0,-999.0,71,-99.99,,,0.00,47,weatherlink.com 1.10,2013-08-23 23:45:00,
2013-08-23 19:00:00,78.3,69.0,30.06,SSW,197,2.0,-999.0,74,-99.99,,,0.00,63,weatherlink.com 1.10,2013-08-24 00:00:00,
2013-08-23 19:15:00,78.3,69.0,30.07,SSE,167,4.0,-999.0,72,-99.99,,,0.00,69,weatherlink.com 1.10,2013-08-24 00:15:00,
2013-08-23 19:30:00,77.8,69.0,30.06,SSE,148,1.0,-999.0,74,-99.99,,,0.00,35,weatherlink.com 1.10,2013-08-24 00:30:00,
2013-08-23 19:45:00,77.0,69.0,30.06,SW,216,0.0,-999.0,75,-99.99,,,0.00,19,weatherlink.com 1.10,2013-08-24 00:45:00,
2013-08-23 20:00:00,76.2,69.0,30.06,SW,216,4.0,-999.0,77,-99.99,,,0.00,12,weatherlink.com 1.10,2013-08-24 01:00:00,
2013-08-23 20:15:00,75.5,68.0,30.06,SSW,198,0.0,-999.0,78,-99.99,,,0.00,0,weatherlink.com 1.10,2013-08-24 01:15:00,
2013-08-23 20:30:00,74.6,68.0,30.07,SSW,198,0.0,-999.0,80,-99.99,,,0.00,0,weatherlink.com 1.10,2013-08-24 01:30:00,
2013-08-23 20:45:00,73.7,68.0,30.07,SSW,198,0.0,-999.0,82,-99.99,,,0.00,0,weatherlink.com 1.10,2013-08-24 01:45:00,
2013-08-23 21:00:00,73.1,68.0,30.07,ESE,111,0.0,-999.0,83,-99.99,,,0.00,0,weatherlink.com 1.10,2013-08-24 02:00:00,
2013-08-23 21:15:00,72.6,68.0,30.07,SSW,209,0.0,-999.0,84,-99.99,,,0.00,0,weatherlink.com 1.10,2013-08-24 02:15:00,
2013-08-23 21:30:00,72.0,67.0,30.07,SSW,209,0.0,-999.0,85,-99.99,,,0.00,0,weatherlink.com 1.10,2013-08-24 02:30:00,
2013-08-23 21:45:00,71.7,67.0,30.07,SSW,202,0.0,-999.0,86,-99.99,,,0.00,0,weatherlink.com 1.10,2013-08-24 02:45:00,
2013-08-23 22:00:00,71.8,68.0,30.07,West,277,0.0,-999.0,87,-99.99,,,0.00,0,weatherlink.com 1.10,2013-08-24 03:00:00,
2013-08-23 22:15:00,71.8,68.0,30.07,WSW,252,0.0,-999.0,86,-99.99,,,0.00,0,weatherlink.com 1.10,2013-08-24 03:15:00,
2013-08-23 22:30:00,71.5,68.0,30.08,WSW,253,0.0,-999.0,87,-99.99,,,0.00,0,weatherlink.com 1.10,2013-08-24 03:30:00,
2013-08-23 22:45:00,71.2,67.0,30.07,SSW,197,0.0,-999.0,87,-99.99,,,0.00,0,weatherlink.com 1.10,2013-08-24 03:45:00,
2013-08-23 23:00:00,71.0,67.0,30.07,NW,313,0.0,-999.0,88,-99.99,,,0.00,0,weatherlink.com 1.10,2013-08-24 04:00:00,
2013-08-23 23:15:00,70.7,67.0,30.07,South,182,1.0,-999.0,88,-99.99,,,0.00,0,weatherlink.com 1.10,2013-08-24 04:15:00,
2013-08-23 23:30:00,70.7,67.0,30.07,SW,225,0.0,-999.0,88,-99.99,,,0.00,0,weatherlink.com 1.10,2013-08-24 04:30:00,
2013-08-23 23:45:00,70.7,67.0,30.07,SSE,157,4.0,-999.0,88,-99.99,,,0.00,0,weatherlink.com 1.10,2013-08-24 04:45:00,